sat.trackr.live / text

‹ back to catalog

STARLINK-5637

NORAD 55432 · 2023-014AT

PAYLOAD ACTIVE UNKNOWN

§ Identity

Operator
Country
US
Launch date
2023-01-31
Launch site
AFWTR
Launch vehicle
Mass (kg)
RCS (m²)

Purposes: comms

External: N2YO · Heavens-Above · Gunter

§ Orbital elements

Epoch: 2026-09-20T20:34:54.098976Z

Period
96.11 min
Inclination
69.9995°
Eccentricity
0.0003516
Mean motion
14.98329494 rev/d
Perigee alt
569.6 km
Apogee alt
574.5 km
Semi-major
6,950.2 km
B*
4.3025e-5
RAAN
332.3421°
Arg perigee
269.8528°
Mean anomaly
90.2228°
Rev number
20,030

§ Raw data

STARLINK-56371 55432U 23014AT  26263.85757059  .00000420  00000+0  43025-4 0  99972 55432  69.9995 332.3421 0003516 269.8528  90.2228 14.98329494200302

JSON: /api/v1/satellites/55432 · /tle

For live sub-satellite position, see the globe view (requires WebGL).

§ Visibility from observer

Set your observer location to see the next 7 days of passes ≥ 10°. The values pass through the URL so the page stays shareable.

No JS? Fill the form by hand. The geolocation button needs JavaScript.